Terug naar catalogus

STARLINK-34721

ActiefCommunicatieVLEO
NORAD 65039·PAYLOAD·🇺🇸 United States

Gelanceerd Jul 30, 2025 vanaf Cape Canaveral Space Force Station

Loading…

Volgende Passages (komende 24 uur)

TLE

VersSource: CelesTrak SupGP

Epoch: Sep 15, 2026, 02:16 UTC

1 65039C 25161AA  26258.09493056  .00031888  00000+0  94229-3 0  2581
2 65039  53.1563 132.6266 0001248  86.8105 288.3849 15.34369322    18

Volg STARLINK-34721 in realtime met AllMySat

Download on the App Store